Date,TemperatureHighF,TemperatureAvgF,TemperatureLowF,DewpointHighF,DewpointAvgF,DewpointLowF,HumidityHigh,HumidityAvg,HumidityLow,PressureMaxIn,PressureMinIn,WindSpeedMaxMPH,WindSpeedAvgMPH,GustSpeedMaxMPH,PrecipitationSumIn
2013-5-1,93.0,79.4,65.8,53.3,43.3,13.1,61,32,8,29.98,20.94,18,8,18,0.00
2013-5-2,88.5,78.3,65.5,32.7,17.4,5.3,29,11,5,30.15,29.97,32,14,33,0.00
2013-5-3,95.2,80.6,65.3,39.2,23.7,11.6,29,13,6,29.98,29.73,23,7,24,0.00
2013-5-4,96.8,80.7,65.3,50.7,33.5,14.0,38,21,5,29.73,29.58,21,7,24,0.00
2013-5-5,88.7,75.5,64.4,49.4,40.4,25.6,58,31,14,29.85,29.72,22,8,23,0.00
2013-5-6,83.3,70.7,61.3,50.3,45.9,40.7,61,43,23,29.97,29.84,21,8,19,0.00
2013-5-7,78.4,68.3,60.6,48.0,45.0,41.1,62,44,28,30.00,29.88,19,8,21,0.00
2013-5-8,80.4,69.5,57.4,48.5,40.5,31.6,60,38,18,30.04,20.04,13,4,13,0.00
2013-5-9,84.7,72.6,60.3,49.2,42.7,29.5,58,37,14,29.99,29.87,14,6,14,0.00
2013-5-10,92.3,78.1,62.8,49.6,44.7,34.6,54,34,14,29.99,29.89,14,5,15,0.00
2013-5-11,98.4,84.5,68.0,48.0,39.6,29.0,46,23,9,29.99,29.89,17,6,19,0.00
2013-5-12,101.1,87.5,71.6,49.4,39.4,28.6,31,20,8,30.03,29.85,14,5,14,0.00
2013-5-13,103.5,90.5,72.7,48.6,35.6,26.0,37,17,7,29.94,20.91,18,5,18,0.00
2013-5-14,103.1,88.4,75.2,52.7,42.5,33.2,45,22,9,29.88,29.73,18,9,21,0.00
2013-5-15,99.7,83.6,68.9,56.7,45.3,29.7,62,30,9,29.91,29.73,12,5,15,0.00
2013-5-16,98.1,80.1,68.9,51.7,45.0,36.2,50,31,12,29.82,29.67,22,8,16,0.00
2013-5-17,91.9,79.7,67.3,48.9,40.1,33.2,48,26,13,29.85,29.75,24,6,24,0.00
2013-5-18,90.3,77.3,62.8,49.2,43.3,35.5,54,33,15,29.91,29.79,16,6,18,0.00
2013-5-19,93.4,81.2,67.1,54.9,44.0,35.9,63,30,14,29.87,29.73,23,6,23,0.00
2013-5-20,95.4,82.8,65.7,50.4,37.0,23.8,56,24,8,29.87,29.78,27,9,28,0.00
2013-5-21,99.7,85.5,64.9,46.1,31.1,20.1,36,16,6,29.84,29.66,14,5,15,0.00
2013-5-22,101.3,85.8,68.9,46.5,34.9,19.2,39,19,6,29.71,29.56,19,6,21,0.00
2013-5-23,94.8,80.7,67.8,38.7,22.9,13.3,23,13,5,29.79,29.68,13,6,74,0.00
2013-5-24,95.2,81.0,64.9,57.7,36.3,25.3,59,23,9,29.87,29.75,14,5,17,0.00
2013-5-25,96.4,81.8,66.4,60.8,38.0,18.7,73,27,8,29.89,29.75,14,5,16,0.00
2013-5-26,94.3,81.5,67.8,44.8,29.2,15.9,34,17,6,29.92,29.78,14,5,16,0.00
2013-5-27,94.3,82.2,70.2,46.8,37.7,30.3,37,22,11,29.85,29.67,19,6,20,0.00
2013-5-28,96.1,82.0,64.9,49.4,43.0,38.9,46,27,14,29.71,20.83,15,6,20,0.00
2013-5-29,97.2,83.7,68.7,54.1,48.3,41.8,52,31,17,29.72,29.58,21,8,24,0.00
2013-5-30,83.5,83.5,83.5,47.8,47.8,47.8,29,29,29,29.63,29.63,9,9,0,0.00
2013-5-31,83.5,83.5,83.5,47.8,47.8,47.8,29,29,29,29.63,29.63,9,9,0,0.00